| time (UTC) | temp C | wind direction | speed KPH | gust KPH | rain 1hr cm | rain 24hr cm | rain mn cm | humidity % | barometer mb |
| 20260902063148 | 15 | 230 | 4.8 | 16.1 | 0.00 | 0.13 | 0.03 | 89 | 1015.0 |
| 20260902060043 | 15 | 268 | 4.8 | 11.3 | 0.00 | 0.13 | 0.03 | 90 | 1015.0 |
| 20260902054548 | 15 | 236 | 4.8 | 8.0 | 0.00 | 0.13 | 0.03 | 91 | 1015.0 |
| 20260902053045 | 14 | 201 | 3.2 | 8.0 | 0.00 | 0.13 | 0.03 | 91 | 1014.9 |
| 20260902051538 | 14 | 250 | 3.2 | 9.7 | 0.00 | 0.13 | 0.03 | 91 | 1014.9 |
| 20260902050034 | 14 | 216 | 3.2 | 8.0 | 0.00 | 0.13 | 0.03 | 91 | 1014.8 |
| 20260902044532 | 13 | 213 | 3.2 | 8.0 | 0.00 | 0.13 | 0.03 | 91 | 1015.0 |
| 20260902043031 | 13 | 215 | 3.2 | 9.7 | 0.00 | 0.13 | 0.03 | 92 | 1014.9 |
| 20260902041530 | 13 | 200 | 4.8 | 9.7 | 0.00 | 0.13 | 0.03 | 92 | 1014.9 |
| 20260902040032 | 12 | 212 | 4.8 | 9.7 | 0.03 | 0.13 | 0.03 | 92 | 1015.0 |
| 20260902034529 | 12 | 225 | 0.0 | 4.8 | 0.03 | 0.13 | 0.03 | 92 | 1014.9 |
| 20260902033028 | 12 | 213 | 3.2 | 8.0 | 0.03 | 0.13 | 0.03 | 92 | 1015.0 |
| 20260902031528 | 12 | 213 | 0.0 | 6.4 | 0.03 | 0.13 | 0.03 | 91 | 1015.1 |
| 20260902030027 | 12 | 239 | 0.0 | 3.2 | 0.00 | 0.10 | 0.00 | 91 | 1015.0 |
| 20260902024527 | 12 | 240 | 0.0 | 4.8 | 0.00 | 0.13 | 0.00 | 92 | 1015.1 |
| 20260902023034 | 11 | 267 | 0.0 | 0.0 | 0.00 | 0.13 | 0.00 | 91 | 1015.1 |
| 20260902021525 | 11 | 267 | 0.0 | 0.0 | 0.00 | 0.13 | 0.00 | 91 | 1015.0 |
| 20260902020026 | 11 | 267 | 0.0 | 0.0 | 0.00 | 0.13 | 0.00 | 90 | 1015.0 |
| 20260902014533 | 12 | 267 | 0.0 | 0.0 | 0.00 | 0.13 | 0.00 | 89 | 1015.0 |
| 20260902013021 | 12 | 267 | 0.0 | 0.0 | 0.00 | 0.13 | 0.00 | 90 | 1014.9 |
| 20260902011538 | 12 | 267 | 0.0 | 0.0 | 0.00 | 0.13 | 0.00 | 89 | 1015.0 |
| 20260902010019 | 12 | 267 | 0.0 | 0.0 | 0.00 | 0.13 | 0.00 | 87 | 1015.0 |
| 20260902004517 | 12 | 267 | 0.0 | 0.0 | 0.00 | 0.13 | 0.00 | 87 | 1015.1 |
| 20260902003014 | 13 | 267 | 0.0 | 0.0 | 0.00 | 0.13 | 0.00 | 86 | 1015.1 |
| 20260902001513 | 13 | 267 | 0.0 | 4.8 | 0.00 | 0.13 | 0.00 | 86 | 1015.1 |
| 20260902000010 | 13 | 259 | 0.0 | 4.8 | 0.00 | 0.13 | 0.00 | 86 | 1015.0 |
| 20260901234508 | 14 | 300 | 0.0 | 8.0 | 0.00 | 0.13 | 0.00 | 86 | 1015.2 |
| 20260901233006 | 14 | 319 | 0.0 | 9.7 | 0.00 | 0.13 | 0.00 | 86 | 1015.2 |
| 20260901231506 | 15 | 306 | 1.6 | 8.0 | 0.00 | 0.13 | 0.00 | 87 | 1015.2 |
| 20260901230004 | 15 | 231 | 1.6 | 8.0 | 0.00 | 0.13 | 0.00 | 88 | 1015.1 |
| 20260901224606 | 15 | 246 | 0.0 | 11.3 | 0.00 | 0.13 | 0.00 | 89 | 1014.9 |
| 20260901223057 | 15 | 236 | 1.6 | 8.0 | 0.00 | 0.13 | 0.00 | 90 | 1014.9 |
| 20260901221600 | 14 | 258 | 0.0 | 0.0 | 0.00 | 0.13 | 0.00 | 89 | 1014.8 |
| 20260901220052 | 15 | 259 | 0.0 | 6.4 | 0.00 | 0.13 | 0.00 | 89 | 1014.8 |
| 20260901214600 | 15 | 234 | 0.0 | 3.2 | 0.00 | 0.13 | 0.13 | 88 | 1014.7 |
| 20260901213055 | 15 | 248 | 0.0 | 4.8 | 0.00 | 0.13 | 0.13 | 88 | 1014.7 |
| 20260901211550 | 15 | 231 | 1.6 | 4.8 | 0.00 | 0.13 | 0.13 | 87 | 1014.5 |
| 20260901210147 | 15 | 246 | 1.6 | 8.0 | 0.00 | 0.13 | 0.13 | 87 | 1014.4 |
| 20260901204545 | 15 | 247 | 0.0 | 3.2 | 0.00 | 0.13 | 0.13 | 86 | 1014.4 |
| 20260901203013 | 15 | 249 | 1.6 | 8.0 | 0.00 | 0.13 | 0.13 | 85 | 1014.3 |
| 20260901201555 | 15 | 244 | 0.0 | 6.4 | 0.00 | 0.13 | 0.13 | 84 | 1014.3 |
| 20260901200037 | 15 | 246 | 0.0 | 4.8 | 0.00 | 0.13 | 0.13 | 84 | 1014.2 |
| 20260901194642 | 16 | 258 | 1.6 | 9.7 | 0.00 | 0.15 | 0.13 | 84 | 1014.1 |
| 20260901191639 | 16 | 224 | 1.6 | 8.0 | 0.00 | 0.15 | 0.13 | 83 | 1014.0 |
| 20260901190053 | 16 | 257 | 1.6 | 8.0 | 0.00 | 0.15 | 0.13 | 82 | 1013.9 |
| 20260901184502 | 17 | 246 | 1.6 | 8.0 | 0.00 | 0.15 | 0.13 | 80 | 1013.7 |
| 20260901181616 | 17 | 257 | 1.6 | 9.7 | 0.00 | 0.15 | 0.13 | 78 | 1013.4 |
| 20260901180056 | 17 | 230 | 1.6 | 12.9 | 0.00 | 0.15 | 0.13 | 77 | 1013.3 |
| 20260901174558 | 18 | 235 | 1.6 | 14.5 | 0.00 | 0.15 | 0.13 | 77 | 1013.2 |
| 20260901173151 | 18 | 221 | 3.2 | 8.0 | 0.00 | 0.15 | 0.13 | 76 | 1013.0 |
| 20260901171544 | 18 | 259 | 1.6 | 9.7 | 0.00 | 0.15 | 0.13 | 75 | 1012.9 |
| 20260901170146 | 18 | 215 | 3.2 | 12.9 | 0.00 | 0.15 | 0.13 | 74 | 1012.9 |
| 20260901164556 | 18 | 229 | 1.6 | 8.0 | 0.00 | 0.15 | 0.13 | 75 | 1012.8 |
| 20260901163006 | 19 | 232 | 3.2 | 9.7 | 0.00 | 0.15 | 0.13 | 74 | 1012.8 |
| 20260901161627 | 19 | 238 | 3.2 | 16.1 | 0.00 | 0.15 | 0.13 | 73 | 1012.6 |
| 20260901160050 | 19 | 226 | 4.8 | 12.9 | 0.00 | 0.15 | 0.13 | 74 | 1012.6 |
| 20260901154602 | 18 | 239 | 6.4 | 14.5 | 0.00 | 0.18 | 0.13 | 77 | 1012.6 |
| 20260901153139 | 18 | 246 | 6.4 | 17.7 | 0.00 | 0.18 | 0.13 | 77 | 1012.5 |
| 20260901151602 | 18 | 236 | 4.8 | 14.5 | 0.00 | 0.18 | 0.13 | 80 | 1012.4 |
| 20260901144543 | 18 | 244 | 6.4 | 14.5 | 0.00 | 0.20 | 0.13 | 78 | 1012.4 |
| 20260901143044 | 18 | 225 | 3.2 | 14.5 | 0.08 | 0.20 | 0.13 | 78 | 1012.3 |
| 20260901141637 | 19 | 239 | 8.0 | 19.3 | 0.08 | 0.20 | 0.13 | 78 | 1012.4 |
| 20260901134553 | 19 | 230 | 3.2 | 11.3 | 0.08 | 0.20 | 0.13 | 81 | 1012.2 |
| 20260901133042 | 21 | 211 | 4.8 | 16.1 | 0.00 | 0.13 | 0.05 | 71 | 1012.1 |
| 20260901131635 | 20 | 225 | 6.4 | 17.7 | 0.00 | 0.13 | 0.05 | 73 | 1012.0 |
| 20260901130059 | 19 | 229 | 3.2 | 14.5 | 0.00 | 0.13 | 0.05 | 77 | 1012.0 |
| 20260901124548 | 19 | 205 | 0.0 | 9.7 | 0.00 | 0.13 | 0.05 | 77 | 1011.9 |
| 20260901123003 | 18 | 214 | 4.8 | 8.0 | 0.00 | 0.13 | 0.05 | 75 | 1011.8 |
| 20260901121556 | 18 | 273 | 1.6 | 8.0 | 0.00 | 0.13 | 0.05 | 76 | 1011.9 |
| 20260901120055 | 20 | 257 | 4.8 | 12.9 | 0.00 | 0.13 | 0.05 | 70 | 1011.9 |
| 20260901114649 | 21 | 234 | 3.2 | 11.3 | 0.03 | 0.13 | 0.05 | 68 | 1011.7 |
| 20260901113052 | 21 | 214 | 3.2 | 12.9 | 0.03 | 0.13 | 0.05 | 64 | 1011.7 |
| 20260901111544 | 21 | 237 | 4.8 | 16.1 | 0.03 | 0.13 | 0.05 | 65 | 1011.7 |
| 20260901110015 | 21 | 324 | 4.8 | 17.7 | 0.03 | 0.13 | 0.05 | 67 | 1011.6 |
| 20260901103155 | 21 | 203 | 4.8 | 14.5 | 0.00 | 0.10 | 0.03 | 72 | 1011.6 |
| 20260901101548 | 20 | 221 | 11.3 | 22.5 | 0.00 | 0.10 | 0.03 | 73 | 1011.5 |
| 20260901100137 | 20 | 250 | 3.2 | 14.5 | 0.00 | 0.10 | 0.03 | 73 | 1011.5 |
| 20260901094544 | 20 | 238 | 9.7 | 16.1 | 0.00 | 0.30 | 0.03 | 74 | 1011.4 |
| 20260901093139 | 19 | 263 | 3.2 | 12.9 | 0.00 | 0.30 | 0.03 | 78 | 1011.3 |
| 20260901091554 | 18 | 231 | 9.7 | 16.1 | 0.00 | 0.30 | 0.03 | 79 | 1011.3 |
| 20260901090145 | 18 | 238 | 1.6 | 14.5 | 0.00 | 0.30 | 0.03 | 77 | 1011.2 |
| 20260901084609 | 19 | 219 | 6.4 | 16.1 | 0.00 | 0.30 | 0.03 | 77 | 1011.1 |
| 20260901083103 | 18 | 242 | 3.2 | 9.7 | 0.00 | 0.30 | 0.03 | 81 | 1011.0 |
| 20260901081554 | 18 | 284 | 1.6 | 11.3 | 0.00 | 0.30 | 0.03 | 80 | 1010.9 |
| 20260901080101 | 18 | 285 | 1.6 | 14.5 | 0.00 | 0.30 | 0.03 | 80 | 1010.6 |
| 20260901074548 | 17 | 269 | 3.2 | 12.9 | 0.00 | 0.33 | 0.03 | 84 | 1010.5 |
| 20260901073044 | 17 | 293 | 1.6 | 12.9 | 0.00 | 0.33 | 0.03 | 86 | 1010.3 |
| 20260901071540 | 16 | 300 | 3.2 | 9.7 | 0.00 | 0.33 | 0.03 | 88 | 1010.2 |
| 20260901070045 | 16 | 309 | 1.6 | 9.7 | 0.00 | 0.33 | 0.03 | 89 | 1010.1 |
| 20260901064537 | 16 | 269 | 1.6 | 12.9 | 0.00 | 0.36 | 0.03 | 91 | 1010.0 |